PRKSL SBRJ-SBSP

Flight info

Callsign PRKSL
Flight time 0h 47m
Altitude 33000
Route NAXOP UZ45 IBDAL
Aircraft E55P/M-SBDFGHJ2RWY/LB2

Departure

Time 2026-05-04 19:10
Airport Santos Dumont Airport (SBRJ)

Arrival

Time 2026-05-04 19:58
Airport Congonhas–Deputado Freitas Nobre Airport (SBSP)
Time Latitude Longitude Altitude Speed Heading
2026-05-04 18:52 -22.90717 -43.16628 13 ft 0 kts 239°
2026-05-04 19:06 -22.90734 -43.16633 13 ft 6 kts 157°
2026-05-04 19:06 -22.90745 -43.16573 13 ft 9 kts 78°
2026-05-04 19:06 -22.90687 -43.16548 14 ft 10 kts
2026-05-04 19:07 -22.90644 -43.16510 14 ft 11 kts 86°
2026-05-04 19:07 -22.90634 -43.16454 14 ft 5 kts 36°
2026-05-04 19:07 -22.90591 -43.16457 14 ft 7 kts 353°
2026-05-04 19:07 -22.90535 -43.16464 14 ft 9 kts 355°
2026-05-04 19:08 -22.90498 -43.16457 14 ft 5 kts 64°
2026-05-04 19:08 -22.90496 -43.16421 15 ft 5 kts 86°
2026-05-04 19:08 -22.90493 -43.16381 15 ft 6 kts 87°
2026-05-04 19:08 -22.90501 -43.16334 15 ft 7 kts 132°
2026-05-04 19:09 -22.90529 -43.16322 15 ft 0 kts 175°
2026-05-04 19:10 -22.90541 -43.16321 15 ft 11 kts 175°
2026-05-04 19:10 -22.90921 -43.16294 14 ft 104 kts 176°
2026-05-04 19:10 -22.91853 -43.16261 662 ft 149 kts 178°
2026-05-04 19:10 -22.92906 -43.16151 1608 ft 156 kts 161°
2026-05-04 19:11 -22.93854 -43.15506 2467 ft 169 kts 134°
2026-05-04 19:11 -22.94862 -43.15079 3801 ft 159 kts 193°
2026-05-04 19:11 -22.95545 -43.15866 4783 ft 149 kts 274°
2026-05-04 19:11 -22.95102 -43.16764 5410 ft 144 kts 328°
2026-05-04 19:12 -22.94169 -43.17274 5772 ft 153 kts 335°
2026-05-04 19:12 -22.91995 -43.16700 6017 ft 212 kts 53°
2026-05-04 19:12 -22.91696 -43.15098 6012 ft 230 kts 98°
2026-05-04 19:13 -22.92481 -43.13577 6010 ft 239 kts 140°
2026-05-04 19:13 -22.93893 -43.12591 6011 ft 244 kts 152°
2026-05-04 19:13 -22.95451 -43.11682 6017 ft 272 kts 153°
2026-05-04 19:13 -22.97295 -43.10799 6015 ft 305 kts 167°
2026-05-04 19:14 -22.99332 -43.10588 6870 ft 283 kts 184°
2026-05-04 19:14 -23.01233 -43.10928 7885 ft 276 kts 200°
2026-05-04 19:14 -23.02959 -43.11808 8874 ft 273 kts 215°
2026-05-04 19:14 -23.04453 -43.13086 9884 ft 275 kts 221°
2026-05-04 19:15 -23.05928 -43.14391 10824 ft 278 kts 221°
2026-05-04 19:15 -23.07443 -43.15732 11695 ft 284 kts 221°
2026-05-04 19:15 -23.09000 -43.17089 12537 ft 290 kts 220°
2026-05-04 19:15 -23.10586 -43.18463 13407 ft 295 kts 220°
2026-05-04 19:16 -23.12247 -43.19910 13725 ft 318 kts 220°
2026-05-04 19:16 -23.14007 -43.21443 14306 ft 326 kts 220°
2026-05-04 19:16 -23.15778 -43.22984 15034 ft 326 kts 221°
2026-05-04 19:16 -23.17556 -43.24533 15738 ft 329 kts 221°
2026-05-04 19:17 -23.19350 -43.26100 16504 ft 332 kts 221°
2026-05-04 19:17 -23.21165 -43.27683 17346 ft 335 kts 221°
2026-05-04 19:17 -23.22992 -43.29277 18157 ft 338 kts 222°
2026-05-04 19:17 -23.24837 -43.30887 18937 ft 341 kts 222°
2026-05-04 19:18 -23.26689 -43.32505 19771 ft 343 kts 222°
2026-05-04 19:18 -23.28563 -43.34141 20573 ft 347 kts 221°
2026-05-04 19:18 -23.30437 -43.35805 21370 ft 349 kts 224°
2026-05-04 19:18 -23.32093 -43.37742 22147 ft 351 kts 233°
2026-05-04 19:19 -23.33430 -43.39935 22925 ft 353 kts 242°
2026-05-04 19:19 -23.34434 -43.42387 23677 ft 357 kts 251°
2026-05-04 19:19 -23.35097 -43.45008 24303 ft 360 kts 256°
2026-05-04 19:19 -23.35718 -43.47657 24936 ft 363 kts 255°
2026-05-04 19:20 -23.36354 -43.50332 25545 ft 365 kts 255°
2026-05-04 19:20 -23.36984 -43.53025 26115 ft 368 kts 255°
2026-05-04 19:20 -23.37616 -43.55737 26659 ft 370 kts 255°
2026-05-04 19:20 -23.38253 -43.58460 27182 ft 373 kts 255°
2026-05-04 19:21 -23.38896 -43.61207 27676 ft 375 kts 255°
2026-05-04 19:21 -23.39542 -43.63967 28135 ft 378 kts 255°
2026-05-04 19:21 -23.40192 -43.66756 28605 ft 379 kts 255°
2026-05-04 19:21 -23.40831 -43.69497 29195 ft 377 kts 255°
2026-05-04 19:22 -23.41475 -43.72261 29796 ft 375 kts 255°
2026-05-04 19:22 -23.42116 -43.75015 30356 ft 374 kts 255°
2026-05-04 19:22 -23.42754 -43.77757 30920 ft 371 kts 256°
2026-05-04 19:22 -23.43384 -43.80469 31503 ft 367 kts 256°
2026-05-04 19:23 -23.44008 -43.83155 32084 ft 365 kts 256°
2026-05-04 19:23 -23.44627 -43.85824 32743 ft 362 kts 256°
2026-05-04 19:23 -23.45247 -43.88496 33122 ft 370 kts 256°
2026-05-04 19:23 -23.45891 -43.91275 33123 ft 384 kts 256°
2026-05-04 19:24 -23.46550 -43.94126 33125 ft 393 kts 256°
2026-05-04 19:24 -23.47888 -43.99912 33128 ft 399 kts 256°
2026-05-04 19:25 -23.49247 -44.05807 33117 ft 403 kts 256°
2026-05-04 19:25 -23.50617 -44.11754 33119 ft 405 kts 256°
2026-05-04 19:26 -23.51985 -44.17706 33119 ft 406 kts 256°
2026-05-04 19:26 -23.53356 -44.23675 33114 ft 406 kts 256°
2026-05-04 19:27 -23.54723 -44.29641 33114 ft 406 kts 256°
2026-05-04 19:27 -23.56089 -44.35611 33115 ft 406 kts 256°
2026-05-04 19:28 -23.57451 -44.41579 33115 ft 406 kts 256°
2026-05-04 19:28 -23.58803 -44.47510 33117 ft 405 kts 256°
2026-05-04 19:29 -23.60161 -44.53480 33121 ft 405 kts 256°
2026-05-04 19:29 -23.61516 -44.59447 33131 ft 405 kts 256°
2026-05-04 19:30 -23.62873 -44.65434 32654 ft 404 kts 256°
2026-05-04 19:30 -23.63548 -44.68419 32128 ft 407 kts 256°
2026-05-04 19:30 -23.64227 -44.71425 31586 ft 410 kts 256°
2026-05-04 19:30 -23.64912 -44.74456 31048 ft 413 kts 256°
2026-05-04 19:31 -23.65601 -44.77511 30496 ft 416 kts 256°
2026-05-04 19:31 -23.66285 -44.80543 29922 ft 419 kts 256°
2026-05-04 19:31 -23.66980 -44.83630 29361 ft 419 kts 256°
2026-05-04 19:31 -23.67676 -44.86722 28807 ft 419 kts 256°
2026-05-04 19:32 -23.68370 -44.89811 28260 ft 419 kts 256°
2026-05-04 19:32 -23.69062 -44.92892 27699 ft 417 kts 256°
2026-05-04 19:32 -23.69519 -44.94931 27350 ft 416 kts 256°
2026-05-04 19:32 -23.70207 -44.97997 26793 ft 414 kts 256°
2026-05-04 19:33 -23.70888 -45.01042 26251 ft 411 kts 256°
2026-05-04 19:33 -23.71563 -45.04058 25714 ft 407 kts 256°
2026-05-04 19:33 -23.72231 -45.07051 25177 ft 404 kts 256°
2026-05-04 19:33 -23.72899 -45.10036 24645 ft 406 kts 256°
2026-05-04 19:34 -23.73570 -45.13048 24107 ft 410 kts 256°
2026-05-04 19:34 -23.74244 -45.16071 23542 ft 408 kts 256°
2026-05-04 19:34 -23.74905 -45.19041 22986 ft 397 kts 256°
2026-05-04 19:34 -23.75550 -45.21941 22472 ft 389 kts 256°
2026-05-04 19:35 -23.76182 -45.24786 21962 ft 382 kts 256°
2026-05-04 19:35 -23.76801 -45.27587 21463 ft 377 kts 256°
2026-05-04 19:35 -23.77412 -45.30357 20970 ft 372 kts 256°
2026-05-04 19:35 -23.78006 -45.33051 20487 ft 367 kts 256°
2026-05-04 19:36 -23.78601 -45.35743 20006 ft 363 kts 256°
2026-05-04 19:36 -23.79189 -45.38411 19529 ft 358 kts 256°
2026-05-04 19:36 -23.79702 -45.41072 19078 ft 358 kts 262°
2026-05-04 19:36 -23.79867 -45.43778 18802 ft 355 kts 266°
2026-05-04 19:37 -23.80006 -45.46481 18613 ft 353 kts 266°
2026-05-04 19:37 -23.80158 -45.49140 18440 ft 350 kts 266°
2026-05-04 19:37 -23.80292 -45.51740 18241 ft 349 kts 266°
2026-05-04 19:37 -23.80422 -45.54352 18036 ft 349 kts 266°
2026-05-04 19:38 -23.80556 -45.56995 17826 ft 348 kts 266°
2026-05-04 19:38 -23.80694 -45.59631 17624 ft 347 kts 266°
2026-05-04 19:38 -23.80829 -45.62255 17418 ft 347 kts 266°
2026-05-04 19:38 -23.80963 -45.64884 17215 ft 346 kts 266°
2026-05-04 19:39 -23.81094 -45.67505 17015 ft 345 kts 266°
2026-05-04 19:39 -23.81228 -45.70120 16810 ft 345 kts 266°
2026-05-04 19:39 -23.81359 -45.72728 16612 ft 344 kts 266°
2026-05-04 19:39 -23.81490 -45.75333 16415 ft 343 kts 266°
2026-05-04 19:40 -23.81620 -45.77937 16218 ft 343 kts 266°
2026-05-04 19:40 -23.81750 -45.80536 16023 ft 342 kts 266°
2026-05-04 19:40 -23.81879 -45.83127 15830 ft 342 kts 266°
2026-05-04 19:40 -23.82007 -45.85689 15640 ft 341 kts 266°
2026-05-04 19:41 -23.82134 -45.88273 15447 ft 341 kts 266°
2026-05-04 19:41 -23.82262 -45.90860 15257 ft 340 kts 266°
2026-05-04 19:41 -23.82387 -45.93431 15018 ft 337 kts 266°
2026-05-04 19:41 -23.82511 -45.95953 14759 ft 330 kts 266°
2026-05-04 19:42 -23.82629 -45.98388 14523 ft 328 kts 266°
2026-05-04 19:42 -23.82752 -46.00885 14265 ft 327 kts 266°
2026-05-04 19:42 -23.82870 -46.03353 14059 ft 324 kts 266°
2026-05-04 19:42 -23.82989 -46.05802 14160 ft 320 kts 266°
2026-05-04 19:43 -23.83105 -46.08213 13702 ft 316 kts 266°
2026-05-04 19:43 -23.83220 -46.10604 13398 ft 314 kts 266°
2026-05-04 19:43 -23.83334 -46.12987 13169 ft 315 kts 266°
2026-05-04 19:43 -23.83448 -46.15377 12942 ft 315 kts 266°
2026-05-04 19:44 -23.83561 -46.17766 12717 ft 314 kts 266°
2026-05-04 19:44 -23.83674 -46.20149 12491 ft 314 kts 266°
2026-05-04 19:44 -23.83842 -46.22520 12270 ft 313 kts 265°
2026-05-04 19:44 -23.84011 -46.24912 12052 ft 325 kts 265°
2026-05-04 19:45 -23.84175 -46.27411 11831 ft 329 kts 266°
2026-05-04 19:45 -23.84345 -46.29873 11617 ft 323 kts 265°
2026-05-04 19:45 -23.84520 -46.32318 11397 ft 319 kts 265°
2026-05-04 19:45 -23.84687 -46.34721 11180 ft 315 kts 266°
2026-05-04 19:46 -23.84853 -46.37100 10972 ft 313 kts 265°
2026-05-04 19:46 -23.85015 -46.39458 10763 ft 311 kts 265°
2026-05-04 19:46 -23.85176 -46.41809 10571 ft 306 kts 265°
2026-05-04 19:46 -23.85333 -46.44066 10456 ft 296 kts 266°
2026-05-04 19:47 -23.85508 -46.46280 10338 ft 289 kts 262°
2026-05-04 19:47 -23.85799 -46.48429 10223 ft 283 kts 263°
2026-05-04 19:47 -23.85995 -46.50562 10108 ft 283 kts 265°
2026-05-04 19:47 -23.86158 -46.52695 9988 ft 280 kts 269°
2026-05-04 19:48 -23.85659 -46.54727 9852 ft 281 kts 298°
2026-05-04 19:48 -23.84537 -46.56476 9727 ft 280 kts 306°
2026-05-04 19:48 -23.83327 -46.58135 9609 ft 278 kts 307°
2026-05-04 19:48 -23.82084 -46.59754 9486 ft 278 kts 311°
2026-05-04 19:49 -23.80572 -46.61076 9361 ft 280 kts 325°
2026-05-04 19:49 -23.78909 -46.62170 9240 ft 279 kts 327°
2026-05-04 19:49 -23.77252 -46.63210 9121 ft 277 kts 328°
2026-05-04 19:49 -23.75573 -46.64250 8999 ft 277 kts 328°
2026-05-04 19:50 -23.73899 -46.65285 8880 ft 276 kts 328°
2026-05-04 19:50 -23.72234 -46.66315 8759 ft 275 kts 328°
2026-05-04 19:50 -23.70571 -46.67344 8637 ft 274 kts 328°
2026-05-04 19:50 -23.68917 -46.68372 8514 ft 273 kts 328°
2026-05-04 19:51 -23.67273 -46.69394 8391 ft 272 kts 328°
2026-05-04 19:51 -23.65632 -46.70415 8269 ft 271 kts 328°
2026-05-04 19:51 -23.63994 -46.71432 8148 ft 270 kts 328°
2026-05-04 19:51 -23.62386 -46.72434 8028 ft 269 kts 328°
2026-05-04 19:52 -23.60760 -46.73445 7856 ft 269 kts 328°
2026-05-04 19:52 -23.59107 -46.74479 7378 ft 276 kts 328°
2026-05-04 19:52 -23.57451 -46.75527 6997 ft 274 kts 328°
2026-05-04 19:52 -23.55835 -46.76551 6630 ft 260 kts 328°
2026-05-04 19:53 -23.54318 -46.77505 6257 ft 245 kts 328°
2026-05-04 19:53 -23.52877 -46.78411 5955 ft 233 kts 329°
2026-05-04 19:53 -23.51354 -46.78772 5733 ft 225 kts
2026-05-04 19:53 -23.50045 -46.77966 5545 ft 222 kts 48°
2026-05-04 19:54 -23.49568 -46.76404 5361 ft 221 kts 91°
2026-05-04 19:54 -23.50157 -46.74908 5180 ft 217 kts 131°
2026-05-04 19:54 -23.51135 -46.73696 5037 ft 208 kts 132°
2026-05-04 19:54 -23.52183 -46.72652 4876 ft 202 kts 143°
2026-05-04 19:55 -23.53329 -46.71816 4780 ft 192 kts 148°
2026-05-04 19:55 -23.54406 -46.71094 4761 ft 171 kts 148°
2026-05-04 19:55 -23.55399 -46.70419 4502 ft 163 kts 148°
2026-05-04 19:55 -23.56327 -46.69778 4355 ft 157 kts 147°
2026-05-04 19:56 -23.57244 -46.69127 4139 ft 157 kts 147°
2026-05-04 19:56 -23.58168 -46.68485 3910 ft 157 kts 148°
2026-05-04 19:56 -23.59082 -46.67869 3623 ft 152 kts 147°
2026-05-04 19:56 -23.59944 -46.67276 3332 ft 138 kts 148°
2026-05-04 19:57 -23.60695 -46.66742 3054 ft 122 kts 150°
2026-05-04 19:57 -23.61407 -46.66259 2817 ft 120 kts 150°
2026-05-04 19:57 -23.62078 -46.65797 2633 ft 106 kts 152°
2026-05-04 19:57 -23.62606 -46.65440 2618 ft 71 kts 150°
2026-05-04 19:58 -23.62849 -46.65268 2623 ft 25 kts 147°
2026-05-04 19:58 -23.62985 -46.65174 2626 ft 22 kts 146°
2026-05-04 19:58 -23.63091 -46.65097 2627 ft 12 kts 144°
2026-05-04 19:58 -23.63122 -46.65028 2628 ft 11 kts 67°
2026-05-04 19:59 -23.63085 -46.65010 2628 ft 6 kts 325°
2026-05-04 19:59 -23.63043 -46.65040 2628 ft 9 kts 327°
2026-05-04 19:59 -23.62388 -46.65579 2615 ft 0 kts 153°
2026-05-04 19:59 -23.62389 -46.65578 2615 ft 1 kts 153°